Location: L�Ave Maria
(50.7161°N, 1.5911°E)
Time: 13:04:22
(UTC+00:00)

NOSS 3-4 (C) - Pass Details

Date: 10 July 2020
Orbit: 891 x 1321 km, 63.4° (Epoch: 12 July)

Event Time Altitude Azimuth Distance (km) Brightness Sun altitude
Rises 22:01:40 0° 315° (NW) 3,814 8.2 -12.7°
Reaches altitude 10° 22:04:15 10° 310° (NW) 2,917 7.1 -12.9°
Maximum altitude 22:10:57 52° 237° (WSW) 1,420 4.3 -13.4°
Enters shadow 22:16:40 17° 168° (SSE) 2,659 5.2 -13.8°
